Location: Kellogg
(38.0159°N, 90.0546°W)
Time: 21:26:15
(UTC+00:00)

Transit 4A - Pass Details

Date: 16 September 2024
Orbit: 864 x 978 km, 66.8° (Epoch: 12 October)

Event Time Altitude Azimuth Distance (km) Brightness Sun altitude
Rises 17:19:47 0° 334° (NNW) 3,608 10.6 53.3°
Reaches altitude 10° 17:22:20 10° 338° (NNW) 2,675 10.1 53.5°
Maximum altitude 17:28:33 65° 60° (ENE) 1,054 9.0 53.7°
Drops below altitude 10° 17:34:52 10° 142° (SE) 2,713 11.0 53.9°
Sets 17:37:28 0° 145° (SE) 3,661 11.5 54.0°
